| time (UTC) | temp F | wind direction | speed MPH | gust MPH | rain 1hr in | rain 24hr in | rain mn in | humidity % | barometer mb |
| 20260507203032 | 61 | 93 | 3.0 | 12.0 | 0.00 | 0.18 | 0.14 | 36 | 1008.1 |
| 20260507202516 | 62 | 61 | 5.0 | 12.0 | 0.00 | 0.18 | 0.14 | 38 | 1008.1 |
| 20260507202016 | 62 | 291 | 3.0 | 9.0 | 0.00 | 0.18 | 0.14 | 35 | 1007.9 |
| 20260507201536 | 62 | 314 | 3.0 | 8.0 | 0.00 | 0.18 | 0.14 | 38 | 1008.1 |
| 20260507201016 | 62 | 291 | 3.0 | 10.0 | 0.00 | 0.18 | 0.14 | 39 | 1008.1 |
| 20260507200516 | 61 | 344 | 2.0 | 13.0 | 0.00 | 0.18 | 0.14 | 40 | 1008.2 |
| 20260507200049 | 61 | 273 | 4.0 | 13.0 | 0.00 | 0.18 | 0.14 | 36 | 1008.2 |
| 20260507195513 | 61 | 232 | 5.0 | 13.0 | 0.00 | 0.21 | 0.14 | 36 | 1008.2 |
| 20260507195017 | 61 | 129 | 3.0 | 8.0 | 0.00 | 0.21 | 0.14 | 38 | 1008.2 |
| 20260507194534 | 61 | 288 | 3.0 | 15.0 | 0.00 | 0.21 | 0.14 | 38 | 1008.5 |
| 20260507194015 | 60 | 275 | 4.0 | 15.0 | 0.00 | 0.21 | 0.14 | 38 | 1008.4 |
| 20260507193518 | 60 | 265 | 4.0 | 14.0 | 0.00 | 0.21 | 0.14 | 40 | 1008.5 |
| 20260507193059 | 61 | 317 | 3.0 | 14.0 | 0.00 | 0.21 | 0.14 | 37 | 1008.5 |
| 20260507192515 | 61 | 93 | 2.0 | 11.0 | 0.00 | 0.21 | 0.14 | 40 | 1008.7 |
| 20260507192017 | 61 | 254 | 4.0 | 13.0 | 0.00 | 0.21 | 0.14 | 37 | 1008.7 |
| 20260507191530 | 62 | 338 | 3.0 | 13.0 | 0.00 | 0.21 | 0.14 | 36 | 1008.7 |
| 20260507191016 | 62 | 146 | 2.0 | 9.0 | 0.00 | 0.21 | 0.14 | 45 | 1008.8 |
| 20260507190518 | 61 | 196 | 2.0 | 10.0 | 0.00 | 0.21 | 0.14 | 44 | 1008.8 |
| 20260507190038 | 60 | 312 | 3.0 | 10.0 | 0.00 | 0.21 | 0.14 | 38 | 1008.9 |
| 20260507185514 | 61 | 178 | 1.0 | 8.0 | 0.00 | 0.21 | 0.14 | 39 | 1009.0 |
| 20260507185016 | 60 | 57 | 2.0 | 8.0 | 0.00 | 0.21 | 0.14 | 42 | 1009.0 |
| 20260507184532 | 60 | 219 | 2.0 | 8.0 | 0.00 | 0.21 | 0.14 | 41 | 1009.0 |
| 20260507184015 | 60 | 342 | 2.0 | 11.0 | 0.00 | 0.21 | 0.14 | 42 | 1009.2 |
| 20260507183514 | 60 | 291 | 4.0 | 11.0 | 0.00 | 0.21 | 0.14 | 40 | 1009.2 |
| 20260507183039 | 60 | 230 | 3.0 | 8.0 | 0.00 | 0.21 | 0.14 | 41 | 1009.0 |
| 20260507182515 | 59 | 187 | 2.0 | 9.0 | 0.00 | 0.21 | 0.14 | 40 | 1009.2 |
| 20260507182015 | 59 | 209 | 3.0 | 10.0 | 0.00 | 0.21 | 0.14 | 37 | 1009.4 |
| 20260507181532 | 59 | 309 | 2.0 | 10.0 | 0.00 | 0.21 | 0.14 | 40 | 1009.4 |
| 20260507181019 | 59 | 307 | 2.0 | 9.0 | 0.00 | 0.21 | 0.14 | 42 | 1009.4 |
| 20260507180515 | 59 | 221 | 3.0 | 10.0 | 0.00 | 0.21 | 0.14 | 41 | 1009.4 |
| 20260507180031 | 59 | 342 | 5.0 | 10.0 | 0.00 | 0.21 | 0.14 | 38 | 1009.5 |
| 20260507175515 | 59 | 324 | 5.0 | 10.0 | 0.00 | 0.24 | 0.14 | 40 | 1009.5 |
| 20260507175019 | 58 | 215 | 2.0 | 12.0 | 0.00 | 0.24 | 0.14 | 41 | 1009.5 |
| 20260507174534 | 58 | 9 | 2.0 | 12.0 | 0.00 | 0.24 | 0.14 | 43 | 1009.6 |
| 20260507174015 | 58 | 24 | 6.0 | 12.0 | 0.00 | 0.24 | 0.14 | 40 | 1009.7 |
| 20260507173520 | 58 | 249 | 4.0 | 13.0 | 0.00 | 0.24 | 0.14 | 39 | 1009.9 |
| 20260507173030 | 58 | 93 | 3.0 | 13.0 | 0.00 | 0.24 | 0.14 | 39 | 1009.9 |
| 20260507172518 | 58 | 327 | 4.0 | 13.0 | 0.00 | 0.24 | 0.14 | 42 | 1010.0 |
| 20260507172015 | 58 | 229 | 3.0 | 13.0 | 0.00 | 0.24 | 0.14 | 43 | 1010.0 |
| 20260507171534 | 58 | 247 | 4.0 | 13.0 | 0.00 | 0.24 | 0.14 | 40 | 1009.9 |
| 20260507171015 | 58 | 77 | 5.0 | 13.0 | 0.00 | 0.24 | 0.14 | 46 | 1010.2 |
| 20260507170516 | 58 | 158 | 5.0 | 12.0 | 0.00 | 0.24 | 0.14 | 40 | 1010.4 |
| 20260507170037 | 58 | 346 | 4.0 | 10.0 | 0.00 | 0.24 | 0.14 | 43 | 1010.4 |
| 20260507165515 | 58 | 317 | 4.0 | 9.0 | 0.00 | 0.25 | 0.14 | 43 | 1010.5 |
| 20260507165018 | 58 | 284 | 3.0 | 12.0 | 0.00 | 0.25 | 0.14 | 42 | 1010.4 |
| 20260507164534 | 58 | 338 | 3.0 | 12.0 | 0.00 | 0.25 | 0.14 | 45 | 1010.4 |
| 20260507164016 | 58 | 16 | 3.0 | 10.0 | 0.00 | 0.25 | 0.14 | 41 | 1010.5 |
| 20260507163516 | 58 | 332 | 4.0 | 10.0 | 0.00 | 0.25 | 0.14 | 45 | 1010.6 |
| 20260507163035 | 58 | 280 | 2.0 | 9.0 | 0.00 | 0.25 | 0.14 | 48 | 1010.7 |
| 20260507162515 | 58 | 254 | 4.0 | 9.0 | 0.00 | 0.25 | 0.14 | 45 | 1010.8 |
| 20260507162018 | 58 | 221 | 2.0 | 7.0 | 0.00 | 0.25 | 0.14 | 48 | 1010.8 |
| 20260507161530 | 57 | 0 | 2.0 | 11.0 | 0.00 | 0.25 | 0.14 | 45 | 1010.9 |
| 20260507161015 | 57 | 319 | 3.0 | 12.0 | 0.00 | 0.25 | 0.14 | 49 | 1010.9 |
| 20260507160517 | 56 | 268 | 4.0 | 12.0 | 0.00 | 0.25 | 0.14 | 51 | 1011.0 |
| 20260507160054 | 56 | 59 | 5.0 | 12.0 | 0.00 | 0.25 | 0.14 | 46 | 1011.1 |
| 20260507155519 | 56 | 55 | 5.0 | 12.0 | 0.00 | 0.25 | 0.14 | 46 | 1011.1 |
| 20260507155015 | 56 | 265 | 4.0 | 11.0 | 0.00 | 0.25 | 0.14 | 50 | 1011.2 |
| 20260507154529 | 55 | 26 | 3.0 | 13.0 | 0.00 | 0.25 | 0.14 | 49 | 1011.4 |
| 20260507154015 | 55 | 350 | 6.0 | 13.0 | 0.00 | 0.25 | 0.14 | 49 | 1011.4 |
| 20260507153516 | 55 | 88 | 6.0 | 12.0 | 0.00 | 0.25 | 0.14 | 51 | 1011.5 |
| 20260507153035 | 55 | 321 | 5.0 | 12.0 | 0.00 | 0.25 | 0.14 | 47 | 1011.5 |
| 20260507152515 | 56 | 9 | 6.0 | 14.0 | 0.00 | 0.25 | 0.14 | 46 | 1011.6 |
| 20260507152016 | 55 | 279 | 5.0 | 14.0 | 0.00 | 0.25 | 0.14 | 53 | 1011.7 |
| 20260507151530 | 55 | 34 | 3.0 | 12.0 | 0.00 | 0.25 | 0.14 | 53 | 1011.7 |
| 20260507151015 | 55 | 20 | 5.0 | 12.0 | 0.00 | 0.25 | 0.14 | 52 | 1011.7 |
| 20260507150516 | 55 | 296 | 4.0 | 10.0 | 0.00 | 0.25 | 0.14 | 53 | 1011.8 |
| 20260507150030 | 56 | 272 | 2.0 | 10.0 | 0.00 | 0.25 | 0.14 | 62 | 1011.8 |
| 20260507145516 | 55 | 33 | 3.0 | 10.0 | 0.00 | 0.25 | 0.14 | 63 | 1011.7 |
| 20260507145015 | 55 | 9 | 3.0 | 10.0 | 0.00 | 0.25 | 0.14 | 59 | 1011.6 |
| 20260507144542 | 54 | 348 | 3.0 | 11.0 | 0.00 | 0.25 | 0.14 | 63 | 1011.6 |
| 20260507144018 | 54 | 47 | 3.0 | 11.0 | 0.00 | 0.25 | 0.14 | 62 | 1011.4 |
| 20260507143516 | 54 | 279 | 5.0 | 11.0 | 0.00 | 0.25 | 0.14 | 65 | 1011.6 |
| 20260507143034 | 54 | 327 | 5.0 | 11.0 | 0.00 | 0.25 | 0.14 | 65 | 1011.4 |
| 20260507142516 | 54 | 61 | 4.0 | 10.0 | 0.00 | 0.25 | 0.14 | 66 | 1011.5 |
| 20260507142013 | 53 | 238 | 5.0 | 10.0 | 0.00 | 0.25 | 0.14 | 69 | 1011.3 |
| 20260507141534 | 53 | 232 | 2.0 | 10.0 | 0.00 | 0.25 | 0.14 | 74 | 1011.5 |
| 20260507141021 | 52 | 344 | 3.0 | 9.0 | 0.00 | 0.25 | 0.14 | 74 | 1011.5 |
| 20260507140516 | 51 | 335 | 3.0 | 9.0 | 0.00 | 0.25 | 0.14 | 74 | 1011.4 |
| 20260507140034 | 51 | 9 | 3.0 | 8.0 | 0.00 | 0.25 | 0.14 | 75 | 1011.4 |
| 20260507135515 | 51 | 71 | 3.0 | 7.0 | 0.00 | 0.25 | 0.14 | 75 | 1011.4 |
| 20260507135017 | 51 | 284 | 3.0 | 7.0 | 0.00 | 0.25 | 0.14 | 75 | 1011.5 |
| 20260507134530 | 51 | 344 | 2.0 | 6.0 | 0.00 | 0.25 | 0.14 | 76 | 1011.5 |
| 20260507134014 | 51 | 321 | 2.0 | 5.0 | 0.00 | 0.25 | 0.14 | 78 | 1011.6 |
| 20260507133517 | 51 | 247 | 2.0 | 5.0 | 0.00 | 0.25 | 0.14 | 77 | 1011.7 |
| 20260507133035 | 51 | 333 | 1.0 | 7.0 | 0.00 | 0.25 | 0.14 | 77 | 1011.5 |
| 20260507132516 | 51 | 19 | 3.0 | 8.0 | 0.00 | 0.25 | 0.14 | 78 | 1011.6 |
| 20260507132014 | 51 | 277 | 3.0 | 8.0 | 0.00 | 0.25 | 0.14 | 79 | 1011.6 |
| 20260507131532 | 51 | 164 | 2.0 | 7.0 | 0.00 | 0.25 | 0.14 | 83 | 1011.3 |
| 20260507131015 | 50 | 15 | 2.0 | 8.0 | 0.00 | 0.25 | 0.14 | 83 | 1011.2 |
| 20260507130516 | 50 | 15 | 3.0 | 8.0 | 0.00 | 0.25 | 0.14 | 82 | 1011.3 |
| 20260507130036 | 51 | 272 | 1.0 | 4.0 | 0.00 | 0.25 | 0.14 | 85 | 1011.3 |
| 20260507125517 | 50 | 338 | 2.0 | 7.0 | 0.00 | 0.25 | 0.14 | 86 | 1011.4 |
| 20260507125018 | 50 | 34 | 2.0 | 8.0 | 0.00 | 0.25 | 0.14 | 86 | 1011.2 |
| 20260507124531 | 50 | 312 | 3.0 | 8.0 | 0.00 | 0.25 | 0.14 | 87 | 1011.2 |
| 20260507124016 | 49 | 254 | 3.0 | 8.0 | 0.00 | 0.25 | 0.14 | 88 | 1011.3 |
| 20260507123515 | 49 | 28 | 3.0 | 8.0 | 0.00 | 0.25 | 0.14 | 88 | 1011.3 |
| 20260507123040 | 49 | 306 | 3.0 | 8.0 | 0.00 | 0.25 | 0.14 | 89 | 1011.1 |
| 20260507122514 | 49 | 292 | 2.0 | 4.0 | 0.00 | 0.25 | 0.14 | 90 | 1011.0 |
| 20260507122018 | 48 | 309 | 1.0 | 4.0 | 0.00 | 0.25 | 0.14 | 90 | 1010.9 |
| 20260507121534 | 48 | 72 | 1.0 | 9.0 | 0.00 | 0.25 | 0.14 | 90 | 1011.0 |
| 20260507121015 | 48 | 323 | 3.0 | 9.0 | 0.00 | 0.25 | 0.14 | 90 | 1010.9 |
| 20260507120515 | 48 | 338 | 2.0 | 7.0 | 0.00 | 0.25 | 0.14 | 90 | 1010.9 |
| 20260507120030 | 48 | 304 | 1.0 | 4.0 | 0.00 | 0.25 | 0.14 | 91 | 1010.9 |
| 20260507115516 | 48 | 22 | 1.0 | 4.0 | 0.00 | 0.25 | 0.14 | 91 | 1010.8 |
| 20260507115017 | 48 | 0 | 1.0 | 4.0 | 0.00 | 0.25 | 0.14 | 91 | 1010.8 |
| 20260507114531 | 48 | 328 | 1.0 | 4.0 | 0.00 | 0.25 | 0.14 | 91 | 1010.7 |
| 20260507114015 | 47 | 41 | 0.0 | 4.0 | 0.00 | 0.25 | 0.14 | 91 | 1010.7 |
| 20260507113518 | 47 | 309 | 1.0 | 4.0 | 0.00 | 0.25 | 0.14 | 91 | 1010.6 |
| 20260507113036 | 47 | 9 | 1.0 | 3.0 | 0.00 | 0.25 | 0.14 | 92 | 1010.4 |
| 20260507112516 | 47 | 309 | 1.0 | 4.0 | 0.00 | 0.25 | 0.14 | 92 | 1010.4 |
| 20260507112016 | 47 | 38 | 1.0 | 4.0 | 0.00 | 0.25 | 0.14 | 92 | 1010.4 |
| 20260507111537 | 47 | 9 | 1.0 | 3.0 | 0.00 | 0.25 | 0.14 | 92 | 1010.4 |
| 20260507111016 | 47 | 9 | 0.0 | 3.0 | 0.00 | 0.25 | 0.14 | 92 | 1010.5 |
| 20260507110515 | 47 | 190 | 0.0 | 4.0 | 0.00 | 0.25 | 0.14 | 92 | 1010.4 |
| 20260507110033 | 47 | 309 | 2.0 | 4.0 | 0.00 | 0.25 | 0.14 | 92 | 1010.1 |
| 20260507105516 | 47 | 0 | 0.0 | 4.0 | 0.00 | 0.25 | 0.14 | 92 | 1010.1 |
| 20260507105016 | 47 | 309 | 0.0 | 4.0 | 0.00 | 0.25 | 0.14 | 92 | 1010.1 |
| 20260507104532 | 47 | 309 | 2.0 | 4.0 | 0.00 | 0.25 | 0.14 | 92 | 1010.1 |
| 20260507104017 | 47 | 342 | 1.0 | 4.0 | 0.00 | 0.25 | 0.14 | 92 | 1010.0 |
| 20260507103516 | 47 | 294 | 1.0 | 5.0 | 0.00 | 0.25 | 0.14 | 92 | 1009.8 |
| 20260507103036 | 47 | 119 | 0.0 | 5.0 | 0.00 | 0.25 | 0.14 | 92 | 1009.8 |
| 20260507102516 | 47 | 338 | 1.0 | 4.0 | 0.00 | 0.25 | 0.14 | 92 | 1009.6 |
| 20260507102016 | 47 | 9 | 2.0 | 4.0 | 0.00 | 0.25 | 0.14 | 92 | 1009.7 |
| 20260507101530 | 47 | 0 | 1.0 | 4.0 | 0.00 | 0.25 | 0.14 | 92 | 1009.5 |
| 20260507101018 | 47 | 279 | 1.0 | 4.0 | 0.00 | 0.25 | 0.14 | 92 | 1009.5 |
| 20260507100518 | 47 | 309 | 0.0 | 5.0 | 0.00 | 0.25 | 0.14 | 92 | 1009.3 |
| 20260507100035 | 47 | 265 | 1.0 | 5.0 | 0.00 | 0.25 | 0.14 | 92 | 1009.4 |
| 20260507095516 | 47 | 284 | 1.0 | 4.0 | 0.00 | 0.25 | 0.14 | 92 | 1009.5 |
| 20260507095015 | 47 | 0 | 1.0 | 4.0 | 0.00 | 0.25 | 0.14 | 92 | 1009.5 |
| 20260507094531 | 47 | 0 | 0.0 | 4.0 | 0.01 | 0.25 | 0.14 | 92 | 1009.4 |
| 20260507094016 | 47 | 329 | 1.0 | 4.0 | 0.01 | 0.25 | 0.14 | 92 | 1009.4 |
| 20260507093516 | 47 | 9 | 1.0 | 4.0 | 0.01 | 0.25 | 0.14 | 92 | 1009.6 |
| 20260507093040 | 48 | 298 | 1.0 | 8.0 | 0.02 | 0.25 | 0.14 | 93 | 1009.3 |
| 20260507092517 | 48 | 297 | 1.0 | 8.0 | 0.02 | 0.25 | 0.14 | 93 | 1009.2 |
| 20260507092017 | 48 | 250 | 2.0 | 8.0 | 0.03 | 0.25 | 0.14 | 93 | 1009.0 |
| 20260507091537 | 48 | 286 | 1.0 | 4.0 | 0.04 | 0.25 | 0.14 | 93 | 1009.2 |
| 20260507091017 | 48 | 9 | 1.0 | 5.0 | 0.04 | 0.25 | 0.14 | 93 | 1009.2 |
| 20260507090516 | 48 | 341 | 1.0 | 5.0 | 0.05 | 0.25 | 0.14 | 93 | 1009.2 |
| 20260507090037 | 48 | 298 | 0.0 | 4.0 | 0.06 | 0.25 | 0.14 | 93 | 1009.0 |
| 20260507085515 | 48 | 291 | 1.0 | 7.0 | 0.06 | 0.25 | 0.14 | 93 | 1009.1 |
| 20260507085017 | 48 | 243 | 1.0 | 7.0 | 0.06 | 0.25 | 0.14 | 93 | 1009.3 |
| 20260507084534 | 49 | 271 | 1.0 | 4.0 | 0.06 | 0.24 | 0.13 | 93 | 1009.1 |
| 20260507084019 | 49 | 328 | 2.0 | 4.0 | 0.06 | 0.24 | 0.13 | 93 | 1009.3 |
| 20260507083516 | 49 | 342 | 1.0 | 4.0 | 0.06 | 0.24 | 0.13 | 93 | 1009.3 |
| 20260507083036 | 49 | 282 | 1.0 | 5.0 | 0.05 | 0.23 | 0.12 | 93 | 1009.2 |
| 20260507082517 | 49 | 298 | 1.0 | 7.0 | 0.06 | 0.23 | 0.12 | 93 | 1009.3 |
| 20260507082016 | 49 | 178 | 2.0 | 7.0 | 0.05 | 0.22 | 0.11 | 93 | 1009.6 |
| 20260507081536 | 49 | 46 | 1.0 | 3.0 | 0.04 | 0.21 | 0.10 | 93 | 1009.4 |
| 20260507081016 | 49 | 0 | 1.0 | 4.0 | 0.04 | 0.21 | 0.10 | 93 | 1009.2 |
| 20260507080520 | 49 | 316 | 1.0 | 6.0 | 0.04 | 0.20 | 0.09 | 93 | 1009.5 |
| 20260507080036 | 49 | 325 | 2.0 | 8.0 | 0.03 | 0.19 | 0.08 | 93 | 1009.4 |
| 20260507075516 | 49 | 269 | 2.0 | 8.0 | 0.04 | 0.19 | 0.08 | 93 | 1009.7 |
| 20260507075016 | 49 | 265 | 2.0 | 6.0 | 0.04 | 0.18 | 0.07 | 93 | 1009.4 |
| 20260507074533 | 49 | 303 | 2.0 | 5.0 | 0.04 | 0.18 | 0.07 | 93 | 1009.4 |
| 20260507074016 | 49 | 221 | 1.0 | 4.0 | 0.05 | 0.18 | 0.07 | 93 | 1009.5 |
| 20260507073516 | 50 | 344 | 1.0 | 5.0 | 0.05 | 0.18 | 0.07 | 93 | 1009.5 |
| 20260507073033 | 50 | 303 | 1.0 | 5.0 | 0.05 | 0.18 | 0.07 | 93 | 1009.5 |
| 20260507072516 | 50 | 309 | 2.0 | 6.0 | 0.05 | 0.17 | 0.06 | 93 | 1009.4 |
| 20260507072015 | 50 | 303 | 1.0 | 6.0 | 0.05 | 0.17 | 0.06 | 92 | 1009.2 |
| 20260507071530 | 50 | 288 | 2.0 | 6.0 | 0.05 | 0.17 | 0.06 | 92 | 1009.5 |
| 20260507071016 | 50 | 234 | 1.0 | 6.0 | 0.05 | 0.17 | 0.06 | 92 | 1009.2 |
| 20260507070516 | 50 | 313 | 2.0 | 7.0 | 0.04 | 0.16 | 0.05 | 92 | 1009.2 |
| 20260507070030 | 50 | 30 | 2.0 | 7.0 | 0.04 | 0.16 | 0.05 | 92 | 1009.5 |
| 20260507065515 | 50 | 330 | 1.0 | 4.0 | 0.03 | 0.15 | 0.04 | 91 | 1009.6 |
| 20260507065015 | 50 | 291 | 2.0 | 4.0 | 0.03 | 0.14 | 0.03 | 91 | 1009.5 |
| 20260507064530 | 50 | 325 | 2.0 | 4.0 | 0.03 | 0.14 | 0.03 | 91 | 1009.4 |
| 20260507064016 | 51 | 15 | 1.0 | 5.0 | 0.02 | 0.13 | 0.02 | 91 | 1009.2 |
| 20260507063517 | 51 | 72 | 1.0 | 5.0 | 0.02 | 0.13 | 0.02 | 91 | 1009.4 |
| 20260507063034 | 51 | 312 | 1.0 | 6.0 | 0.02 | 0.13 | 0.02 | 90 | 1009.2 |
| 20260507062516 | 51 | 291 | 1.0 | 6.0 | 0.01 | 0.12 | 0.01 | 90 | 1008.6 |
| 20260507062017 | 51 | 334 | 1.0 | 8.0 | 0.01 | 0.12 | 0.01 | 90 | 1008.9 |
| 20260507061535 | 51 | 303 | 2.0 | 8.0 | 0.01 | 0.12 | 0.01 | 90 | 1009.3 |
| 20260507061016 | 52 | 309 | 1.0 | 4.0 | 0.01 | 0.12 | 0.01 | 90 | 1009.2 |
| 20260507060515 | 52 | 243 | 1.0 | 3.0 | 0.01 | 0.12 | 0.01 | 90 | 1009.4 |
| 20260507060031 | 52 | 329 | 1.0 | 3.0 | 0.01 | 0.12 | 0.01 | 89 | 1009.1 |
| 20260507055517 | 52 | 0 | 1.0 | 4.0 | 0.01 | 0.12 | 0.01 | 88 | 1009.2 |
| 20260507055017 | 52 | 309 | 1.0 | 8.0 | 0.00 | 0.11 | 0.00 | 87 | 1008.7 |
| 20260507054534 | 53 | 0 | 2.0 | 8.0 | 0.00 | 0.11 | 0.00 | 86 | 1008.7 |
| 20260507054015 | 53 | 137 | 2.0 | 6.0 | 0.00 | 0.11 | 0.00 | 86 | 1008.5 |
| 20260507053517 | 53 | 0 | 2.0 | 6.0 | 0.00 | 0.11 | 0.00 | 85 | 1008.4 |
| 20260507053030 | 53 | 323 | 1.0 | 7.0 | 0.00 | 0.11 | 0.00 | 84 | 1008.7 |
| 20260507052515 | 53 | 296 | 2.0 | 9.0 | 0.00 | 0.11 | 0.00 | 84 | 1008.7 |
| 20260507052016 | 54 | 319 | 1.0 | 9.0 | 0.00 | 0.11 | 0.00 | 84 | 1008.7 |
| 20260507051532 | 54 | 243 | 2.0 | 12.0 | 0.00 | 0.11 | 0.00 | 84 | 1008.8 |
| 20260507051016 | 54 | 314 | 1.0 | 12.0 | 0.00 | 0.11 | 0.00 | 85 | 1008.9 |
| 20260507050514 | 54 | 41 | 3.0 | 9.0 | 0.00 | 0.11 | 0.00 | 85 | 1009.0 |
| 20260507050036 | 54 | 9 | 3.0 | 9.0 | 0.00 | 0.11 | 0.00 | 86 | 1008.7 |
| 20260507045519 | 54 | 68 | 3.0 | 8.0 | 0.00 | 0.11 | 0.00 | 86 | 1008.7 |
| 20260507045013 | 54 | 20 | 2.0 | 7.0 | 0.00 | 0.11 | 0.00 | 86 | 1008.9 |
| 20260507044531 | 54 | 316 | 2.0 | 5.0 | 0.00 | 0.11 | 0.00 | 87 | 1008.9 |
| 20260507044016 | 55 | 232 | 2.0 | 5.0 | 0.00 | 0.11 | 0.00 | 86 | 1008.9 |
| 20260507043519 | 55 | 304 | 2.0 | 6.0 | 0.00 | 0.11 | 0.00 | 86 | 1008.8 |
| 20260507043032 | 55 | 309 | 3.0 | 7.0 | 0.00 | 0.11 | 0.00 | 86 | 1008.8 |
| 20260507042515 | 55 | 311 | 2.0 | 7.0 | 0.00 | 0.11 | 0.00 | 86 | 1009.0 |
| 20260507042017 | 55 | 9 | 1.0 | 4.0 | 0.00 | 0.11 | 0.00 | 86 | 1009.0 |
| 20260507041547 | 55 | 309 | 1.0 | 4.0 | 0.00 | 0.11 | 0.00 | 86 | 1008.9 |
| 20260507041017 | 55 | 309 | 1.0 | 6.0 | 0.00 | 0.11 | 0.00 | 86 | 1009.0 |
| 20260507040516 | 55 | 316 | 2.0 | 6.0 | 0.00 | 0.11 | 0.00 | 86 | 1008.9 |
| 20260507040032 | 55 | 316 | 1.0 | 4.0 | 0.00 | 0.11 | 0.00 | 87 | 1008.9 |
| 20260507035516 | 55 | 273 | 1.0 | 4.0 | 0.00 | 0.11 | 0.11 | 87 | 1008.9 |
| 20260507035019 | 55 | 316 | 1.0 | 4.0 | 0.00 | 0.11 | 0.11 | 87 | 1008.8 |
| 20260507034530 | 55 | 265 | 2.0 | 4.0 | 0.00 | 0.11 | 0.11 | 87 | 1008.7 |
| 20260507034015 | 55 | 275 | 2.0 | 6.0 | 0.00 | 0.11 | 0.11 | 87 | 1008.6 |
| 20260507033515 | 56 | 209 | 2.0 | 7.0 | 0.00 | 0.11 | 0.11 | 87 | 1008.6 |
| 20260507033034 | 56 | 323 | 3.0 | 7.0 | 0.00 | 0.11 | 0.11 | 87 | 1008.5 |
| 20260507032516 | 56 | 300 | 2.0 | 5.0 | 0.00 | 0.11 | 0.11 | 88 | 1008.5 |
| 20260507032018 | 56 | 336 | 1.0 | 4.0 | 0.00 | 0.11 | 0.11 | 88 | 1008.6 |
| 20260507031533 | 56 | 309 | 2.0 | 9.0 | 0.00 | 0.11 | 0.11 | 88 | 1008.7 |
| 20260507031015 | 56 | 316 | 2.0 | 9.0 | 0.00 | 0.11 | 0.11 | 88 | 1008.7 |
| 20260507030516 | 56 | 303 | 2.0 | 9.0 | 0.00 | 0.11 | 0.11 | 88 | 1008.8 |
| 20260507030030 | 56 | 309 | 2.0 | 6.0 | 0.00 | 0.11 | 0.11 | 88 | 1008.9 |
| 20260507025520 | 56 | 221 | 2.0 | 7.0 | 0.00 | 0.11 | 0.11 | 89 | 1009.0 |
| 20260507025015 | 56 | 295 | 2.0 | 7.0 | 0.01 | 0.11 | 0.11 | 89 | 1009.0 |
| 20260507024535 | 56 | 303 | 1.0 | 5.0 | 0.01 | 0.11 | 0.11 | 89 | 1009.0 |
| 20260507024019 | 56 | 291 | 1.0 | 5.0 | 0.01 | 0.11 | 0.11 | 89 | 1009.1 |
| 20260507023514 | 57 | 312 | 1.0 | 9.0 | 0.01 | 0.11 | 0.11 | 90 | 1009.2 |
| 20260507023032 | 57 | 309 | 3.0 | 9.0 | 0.01 | 0.11 | 0.11 | 90 | 1009.1 |
| 20260507022515 | 57 | 338 | 1.0 | 6.0 | 0.01 | 0.11 | 0.11 | 91 | 1009.1 |
| 20260507022016 | 57 | 317 | 2.0 | 7.0 | 0.02 | 0.11 | 0.11 | 91 | 1009.1 |
| 20260507021531 | 57 | 265 | 2.0 | 7.0 | 0.02 | 0.11 | 0.11 | 92 | 1009.0 |
| 20260507021015 | 57 | 270 | 1.0 | 5.0 | 0.02 | 0.11 | 0.11 | 92 | 1009.2 |
| 20260507020517 | 57 | 315 | 1.0 | 6.0 | 0.02 | 0.11 | 0.11 | 93 | 1009.0 |
| 20260507020035 | 57 | 232 | 3.0 | 6.0 | 0.02 | 0.11 | 0.11 | 93 | 1008.9 |
| 20260507015515 | 58 | 51 | 2.0 | 6.0 | 0.02 | 0.11 | 0.11 | 94 | 1008.8 |
| 20260507015017 | 58 | 236 | 2.0 | 6.0 | 0.01 | 0.10 | 0.10 | 94 | 1008.8 |
| 20260507014547 | 58 | 336 | 1.0 | 4.0 | 0.01 | 0.10 | 0.10 | 94 | 1008.9 |
| 20260507014015 | 58 | 317 | 1.0 | 3.0 | 0.01 | 0.10 | 0.10 | 94 | 1008.4 |
| 20260507013517 | 58 | 72 | 1.0 | 2.0 | 0.01 | 0.10 | 0.10 | 94 | 1008.5 |
| 20260507013043 | 58 | 51 | 0.0 | 2.0 | 0.01 | 0.10 | 0.10 | 94 | 1008.6 |
| 20260507012520 | 58 | 51 | 0.0 | 2.0 | 0.00 | 0.09 | 0.09 | 94 | 1008.5 |
| 20260507012020 | 58 | 334 | 0.0 | 2.0 | 0.00 | 0.09 | 0.09 | 94 | 1008.5 |
| 20260507011537 | 58 | 0 | 0.0 | 2.0 | 0.00 | 0.09 | 0.09 | 94 | 1008.4 |
| 20260507011014 | 58 | 0 | 0.0 | 2.0 | 0.00 | 0.09 | 0.09 | 94 | 1008.5 |
| 20260507010519 | 58 | 178 | 1.0 | 2.0 | 0.00 | 0.09 | 0.09 | 94 | 1008.6 |
| 20260507010033 | 58 | 221 | 0.0 | 3.0 | 0.00 | 0.09 | 0.09 | 94 | 1008.5 |
| 20260507005518 | 58 | 286 | 0.0 | 3.0 | 0.00 | 0.09 | 0.09 | 94 | 1008.4 |
| 20260507005015 | 58 | 247 | 0.0 | 3.0 | 0.00 | 0.09 | 0.09 | 94 | 1008.3 |
| 20260507004529 | 58 | 0 | 0.0 | 2.0 | 0.00 | 0.09 | 0.09 | 94 | 1008.3 |
| 20260507004016 | 58 | 0 | 0.0 | 2.0 | 0.00 | 0.09 | 0.09 | 94 | 1008.2 |
| 20260507003515 | 58 | 0 | 0.0 | 2.0 | 0.00 | 0.09 | 0.09 | 94 | 1008.2 |
| 20260507003034 | 59 | 67 | 1.0 | 2.0 | 0.00 | 0.09 | 0.09 | 94 | 1008.1 |
| 20260507002516 | 59 | 34 | 1.0 | 2.0 | 0.00 | 0.09 | 0.09 | 94 | 1008.2 |
| 20260507002017 | 59 | 146 | 1.0 | 3.0 | 0.00 | 0.09 | 0.09 | 94 | 1008.1 |
| 20260507001530 | 59 | 146 | 1.0 | 4.0 | 0.00 | 0.09 | 0.09 | 93 | 1008.1 |
| 20260507001018 | 59 | 126 | 1.0 | 4.0 | 0.00 | 0.09 | 0.09 | 94 | 1007.9 |
| 20260507000518 | 59 | 178 | 1.0 | 4.0 | 0.00 | 0.09 | 0.09 | 93 | 1007.8 |
| 20260507000032 | 59 | 238 | 1.0 | 4.0 | 0.00 | 0.09 | 0.09 | 93 | 1007.9 |
| 20260506235516 | 60 | 0 | 1.0 | 4.0 | 0.00 | 0.09 | 0.09 | 93 | 1007.8 |
| 20260506235016 | 60 | 126 | 1.0 | 5.0 | 0.00 | 0.09 | 0.09 | 94 | 1007.7 |
| 20260506234530 | 60 | 265 | 1.0 | 5.0 | 0.00 | 0.09 | 0.09 | 94 | 1007.7 |
| 20260506234014 | 60 | 200 | 1.0 | 5.0 | 0.00 | 0.09 | 0.09 | 94 | 1007.8 |
| 20260506233515 | 60 | 190 | 1.0 | 5.0 | 0.00 | 0.09 | 0.09 | 94 | 1007.8 |
| 20260506233032 | 60 | 149 | 2.0 | 4.0 | 0.00 | 0.09 | 0.09 | 94 | 1007.9 |
| 20260506232519 | 60 | 149 | 1.0 | 4.0 | 0.00 | 0.09 | 0.09 | 94 | 1008.0 |
| 20260506232014 | 60 | 187 | 2.0 | 4.0 | 0.00 | 0.09 | 0.09 | 94 | 1007.9 |
| 20260506231529 | 60 | 171 | 1.0 | 4.0 | 0.00 | 0.09 | 0.09 | 94 | 1008.1 |
| 20260506231017 | 60 | 221 | 1.0 | 4.0 | 0.00 | 0.09 | 0.09 | 94 | 1008.1 |
| 20260506230514 | 60 | 200 | 1.0 | 5.0 | 0.00 | 0.09 | 0.09 | 94 | 1008.0 |
| 20260506230031 | 60 | 255 | 1.0 | 5.0 | 0.00 | 0.09 | 0.09 | 94 | 1007.9 |
| 20260506225519 | 60 | 185 | 1.0 | 5.0 | 0.00 | 0.09 | 0.09 | 94 | 1007.8 |
| 20260506225016 | 60 | 205 | 1.0 | 5.0 | 0.00 | 0.09 | 0.09 | 94 | 1007.7 |
| 20260506224531 | 60 | 178 | 2.0 | 5.0 | 0.00 | 0.09 | 0.09 | 94 | 1007.7 |
| 20260506224014 | 59 | 217 | 2.0 | 6.0 | 0.00 | 0.09 | 0.09 | 94 | 1007.7 |
| 20260506223517 | 59 | 188 | 2.0 | 6.0 | 0.00 | 0.09 | 0.09 | 94 | 1007.6 |
| 20260506223032 | 59 | 212 | 1.0 | 4.0 | 0.00 | 0.09 | 0.09 | 94 | 1007.5 |
| 20260506222517 | 59 | 178 | 1.0 | 5.0 | 0.00 | 0.09 | 0.09 | 94 | 1007.5 |
| 20260506222014 | 59 | 188 | 2.0 | 6.0 | 0.00 | 0.09 | 0.09 | 94 | 1007.5 |
| 20260506221530 | 59 | 190 | 2.0 | 6.0 | 0.00 | 0.09 | 0.09 | 94 | 1007.6 |
| 20260506221018 | 59 | 212 | 1.0 | 4.0 | 0.00 | 0.09 | 0.09 | 94 | 1007.4 |
| 20260506220514 | 59 | 247 | 1.0 | 4.0 | 0.00 | 0.09 | 0.09 | 94 | 1007.5 |
| 20260506220032 | 59 | 254 | 2.0 | 5.0 | 0.00 | 0.09 | 0.09 | 94 | 1007.4 |
| 20260506215517 | 59 | 232 | 2.0 | 5.0 | 0.00 | 0.09 | 0.09 | 93 | 1007.4 |
| 20260506215015 | 59 | 250 | 2.0 | 6.0 | 0.00 | 0.09 | 0.09 | 94 | 1007.4 |
| 20260506214531 | 59 | 219 | 2.0 | 6.0 | 0.00 | 0.09 | 0.09 | 94 | 1007.3 |
| 20260506214016 | 59 | 0 | 2.0 | 8.0 | 0.00 | 0.09 | 0.09 | 94 | 1007.3 |
| 20260506213515 | 59 | 111 | 3.0 | 8.0 | 0.00 | 0.09 | 0.09 | 93 | 1007.3 |
| 20260506213030 | 59 | 221 | 2.0 | 6.0 | 0.00 | 0.09 | 0.09 | 93 | 1007.3 |
| 20260506212514 | 59 | 137 | 2.0 | 8.0 | 0.00 | 0.09 | 0.09 | 93 | 1007.3 |
| 20260506212014 | 60 | 165 | 2.0 | 8.0 | 0.00 | 0.09 | 0.09 | 93 | 1007.3 |
| 20260506211532 | 60 | 196 | 1.0 | 5.0 | 0.01 | 0.09 | 0.09 | 94 | 1007.3 |
| 20260506211015 | 60 | 238 | 1.0 | 6.0 | 0.02 | 0.09 | 0.09 | 94 | 1007.2 |
| 20260506210516 | 59 | 178 | 2.0 | 9.0 | 0.02 | 0.09 | 0.09 | 94 | 1007.1 |
| 20260506210037 | 59 | 201 | 3.0 | 9.0 | 0.02 | 0.09 | 0.09 | 94 | 1007.1 |
| 20260506205516 | 59 | 200 | 3.0 | 8.0 | 0.02 | 0.09 | 0.09 | 93 | 1007.1 |
| 20260506205015 | 59 | 171 | 2.0 | 8.0 | 0.02 | 0.09 | 0.09 | 93 | 1007.0 |
| 20260506204532 | 59 | 142 | 2.0 | 7.0 | 0.02 | 0.09 | 0.09 | 93 | 1007.0 |
| 20260506204016 | 59 | 215 | 3.0 | 7.0 | 0.03 | 0.09 | 0.09 | 94 | 1007.1 |
| 20260506203516 | 59 | 212 | 2.0 | 9.0 | 0.03 | 0.09 | 0.09 | 93 | 1007.1 |